Regional Weather Roundup
Issued by NWS

Home | Current Version | Previous Version | Text Only | Print | Product List | Glossary On
Versions: 1 2 3 4 5 6 7 8 9 10 11 12 13 14 15 16 17 18 19 20 21 22 23 24 25 26 27 28 29 30 31 32 33 34 35 36 37 38 39 40 41 42 43 44 45 46 47 48 49 50
732
ASUS43 KDMX 240408
RWRIA

WEATHER ROUNDUP FOR IOWA
NATIONAL WEATHER SERVICE DES MOINES IA
1100 PM CDT MON MAY 23 2016

NOTE: "FAIR" INDICATES FEW OR NO CLOUDS BELOW 12,000 FEET WITH NO
SIGNIFICANT WEATHER AND/OR OBSTRUCTIONS TO VISIBILITY.

* - THESE STATIONS ARE NOT NWS STATIONS...THUS NOT UNDER NWS
QUALITY CONTROL.  THEY ALSO DO NOT REPORT WEATHER SUCH
AS PRECIPITATION OR FOG.

IAZ001>003-012>014-020>022-031>034-043>046-240500-
   NORTHWEST IOWA

CITY           SKY/WX    TMP DP  RH WIND       PRES   REMARKS
CARROLL *      CLEAR     63  61  94 E5        29.86R
CHEROKEE *     CLOUDY    64  64 100 SE7       29.83R
DENISON *      MOCLDY    64  61  88 CALM      29.85R
LE MARS *      PTCLDY    66  64  94 SE5       29.81S
ORANGE CITY *  CLEAR     64  63  94 S3        29.79F
SHELDON *      MOCLDY    64  63  94 S7        29.78F
SIOUX CITY       N/A    N/A N/A N/A MISG      29.79R
SPENCER        CLOUDY    65  62  90 S14       29.82R
STORM LAKE *   LGT RAIN  63  63 100 S3        29.87R
$$

IAZ055>058-069>071-079>083-090>094-240500-
   SOUTHWEST IOWA

CITY           SKY/WX    TMP DP  RH WIND       PRES   REMARKS
ATLANTIC *     CLEAR     64  61  88 S6        29.85R
AUDUBON *      CLEAR     63  57  82 CALM      29.86R
CLARINDA *       N/A     68  63  83 MISG      29.87R
COUNCIL BLFS * MOCLDY    64  63  94 S9        29.84R
CRESTON *      CLOUDY    64  63  94 S14       29.87R
HARLAN  *        N/A    N/A N/A N/A MISG        N/A
LAMONI         MOCLDY    66  61  84 S8        29.87R
RED OAK *      CLOUDY    68  63  83 S9        29.86R
SHENANDOAH *   CLOUDY    68  64  88 S10       29.86R
$$

IAZ047>049-059>061-072>074-084-240500-
   CENTRAL IOWA

CITY           SKY/WX    TMP DP  RH WIND       PRES   REMARKS
AMES           PTCLDY    63  59  87 S5        29.85R
ANKENY *       CLEAR     64  61  88 CALM      29.85R
BOONE *        CLEAR     64  61  88 CALM      29.85R
CHARITON *     CLEAR     64  61  88 SE5       29.87R
DES MOINES     CLOUDY    67  59  75 SE7       29.85R
GRINNELL*      PTCLDY    68  54  60 S7        29.87S
KNOXVILLE *    CLEAR     68  59  73 SE7       29.84F
MARSHALLTOWN   CLOUDY    67  55  65 SE6       29.85R
NEWTON *       PTCLDY    66  55  68 SE7       29.86R
PELLA *        MOCLDY    70  55  60 S6        29.87S
PERRY *          N/A     64  61  88 CALM      29.85R
$$

IAZ004>006-015-016-023>025-035-036-240500-
   NORTH CENTRAL IOWA

CITY           SKY/WX    TMP DP  RH WIND       PRES   REMARKS
ALGONA *       MOCLDY    64  63  94 S7        29.85R
CLARION *      PTCLDY    64  61  88 S9        29.86R
ESTHERVILLE    CLOUDY    64  62  93 S14       29.81F
FORT DODGE *   CLOUDY    64  57  77 S7        29.87R
MASON CITY     CLOUDY    66  61  84 SW8       29.87R
FOREST CITY *  CLOUDY    64  61  88 S7        29.85S
WEBSTER CITY * PTCLDY    64  61  88 S7        29.85R
IOWA FALLS *     N/A     66  59  77 SW6       29.87R
$$

IAZ007>011-017>019-026>030-037>042-050>054-066-240500-
   NORTHEAST IOWA

CITY           SKY/WX    TMP DP  RH WIND       PRES   REMARKS
CEDAR RAPIDS   PTCLDY    66  53  63 S6        29.88R
CHARLES CITY * CLOUDY    68  64  88 SW3       29.86R
CLINTON *      PTCLDY    67  49  52 S5        29.91R
DECORAH *      CLEAR     72  57  60 S8        29.85S
DUBUQUE        CLOUDY    62  48  60 S6        29.90R
MONTICELLO *   CLEAR     64  48  55 CALM      29.89R
OELWEIN *      PTCLDY    66  52  59 S8        29.88R
WATERLOO       PTCLDY    70  54  56 S9        29.85R
$$

IAZ064-065-067-068-078-240500-
   EAST CENTRAL IOWA

CITY           SKY/WX    TMP DP  RH WIND       PRES   REMARKS
DAVENPORT      CLOUDY    67  48  50 S7        29.91R
IOWA CITY      CLEAR     65  52  62 CALM      29.90R
MT. PLEASANT * CLOUDY    70  54  56 S7        29.90F
MUSCATINE *    CLEAR     66  52  59 S5        29.90R
QUAD CITIES    PTCLDY    66  48  52 S3        29.89R
$$

IAZ062-063-075>077-085>089-095>099-240500-
   SOUTHEAST IOWA

CITY           SKY/WX    TMP DP  RH WIND       PRES   REMARKS
BURLINGTON     CLOUDY    69  52  54 SW8       29.91R
FAIRFIELD *      N/A    N/A N/A N/A MISG        N/A
FORT MADISON * CLEAR     70  54  56 S5        29.92S
KEOKUK *       CLEAR     68  52  56 S5        29.91R
OSKALOOSA *      N/A     66  54  63 S8        29.88S
OTTUMWA        PTCLDY    68  53  58 S8        29.87S
WASHINGTON *   CLEAR     66  54  63 S8        29.90S
$$

ABBREVIATIONS USED IN REMARKS
   TC - TEMPERATURES IN CELSIUS
  WCI - WIND CHILL INDEX
   HX - HEAT INDEX
  VSB - VISIBILITY
$$





USA.gov is the U.S. government's official web portal to all federal, state and local government web resources and services.